SHT4H EGCC-EGLL

Flight info

Callsign SHT4H
Flight time 0h 34m
Altitude 19000
Route LISTO L612 HON
Aircraft A20N/M-SDE2E3FGHIRWXY/LB1

Departure

Time 2026-05-03 23:29
Airport Manchester Airport (EGCC)

Arrival

Time 2026-05-04 00:04
Airport London Heathrow Airport (EGLL)
Time Latitude Longitude Altitude Speed Heading
2026-05-03 23:09 53.36739 -2.28804 236 ft 0 kts 315°
2026-05-03 23:15 53.36737 -2.28802 240 ft 2 kts 315°
2026-05-03 23:15 53.36726 -2.28782 237 ft 2 kts 315°
2026-05-03 23:16 53.36714 -2.28763 236 ft 2 kts 315°
2026-05-03 23:16 53.36702 -2.28743 237 ft 2 kts 314°
2026-05-03 23:16 53.36695 -2.28720 241 ft 2 kts 244°
2026-05-03 23:16 53.36702 -2.28704 239 ft 1 kts 224°
2026-05-03 23:17 53.36703 -2.28702 239 ft 0 kts 224°
2026-05-03 23:20 53.36703 -2.28703 239 ft 0 kts 224°
2026-05-03 23:21 53.36687 -2.28727 237 ft 7 kts 224°
2026-05-03 23:21 53.36620 -2.28777 239 ft 14 kts 193°
2026-05-03 23:21 53.36538 -2.28679 236 ft 17 kts 134°
2026-05-03 23:21 53.36454 -2.28534 236 ft 19 kts 134°
2026-05-03 23:22 53.36257 -2.28354 236 ft 18 kts 134°
2026-05-03 23:22 53.36163 -2.28192 238 ft 20 kts 134°
2026-05-03 23:22 53.36062 -2.28018 236 ft 22 kts 135°
2026-05-03 23:23 53.35946 -2.27851 237 ft 23 kts 163°
2026-05-03 23:23 53.35787 -2.27869 236 ft 23 kts 186°
2026-05-03 23:23 53.35621 -2.27896 236 ft 25 kts 185°
2026-05-03 23:23 53.35451 -2.27937 236 ft 25 kts 207°
2026-05-03 23:24 53.35330 -2.28125 236 ft 23 kts 224°
2026-05-03 23:24 53.35220 -2.28323 236 ft 23 kts 232°
2026-05-03 23:24 53.35117 -2.28538 236 ft 24 kts 231°
2026-05-03 23:24 53.35039 -2.28697 236 ft 11 kts 229°
2026-05-03 23:25 53.34986 -2.28790 236 ft 11 kts 227°
2026-05-03 23:25 53.34933 -2.28885 236 ft 11 kts 226°
2026-05-03 23:25 53.34876 -2.28983 236 ft 12 kts 226°
2026-05-03 23:25 53.34819 -2.29087 236 ft 12 kts 229°
2026-05-03 23:26 53.34763 -2.29200 236 ft 13 kts 231°
2026-05-03 23:26 53.34702 -2.29310 236 ft 13 kts 213°
2026-05-03 23:26 53.34679 -2.29329 236 ft 0 kts 199°
2026-05-03 23:27 53.34678 -2.29329 236 ft 0 kts 199°
2026-05-03 23:28 53.34663 -2.29337 236 ft 8 kts 197°
2026-05-03 23:28 53.34563 -2.29309 237 ft 18 kts 144°
2026-05-03 23:28 53.34582 -2.29137 236 ft 15 kts 51°
2026-05-03 23:28 53.34644 -2.29008 236 ft 20 kts 51°
2026-05-03 23:29 53.34871 -2.28540 237 ft 88 kts 51°
2026-05-03 23:29 53.35407 -2.27439 307 ft 147 kts 50°
2026-05-03 23:29 53.36096 -2.26007 819 ft 163 kts 51°
2026-05-03 23:29 53.36789 -2.24573 1851 ft 152 kts 51°
2026-05-03 23:30 53.37382 -2.23087 2715 ft 164 kts 65°
2026-05-03 23:30 53.37554 -2.21072 3268 ft 189 kts 99°
2026-05-03 23:30 53.36893 -2.19119 4038 ft 201 kts 135°
2026-05-03 23:30 53.35749 -2.17704 4796 ft 212 kts 148°
2026-05-03 23:31 53.34302 -2.16799 5194 ft 240 kts 170°
2026-05-03 23:31 53.32534 -2.16779 5221 ft 266 kts 184°
2026-05-03 23:31 53.30641 -2.17132 5805 ft 279 kts 186°
2026-05-03 23:31 53.28727 -2.17511 7020 ft 273 kts 186°
2026-05-03 23:32 53.26859 -2.17859 8241 ft 269 kts 186°
2026-05-03 23:32 53.24991 -2.18185 9321 ft 271 kts 186°
2026-05-03 23:32 53.23098 -2.18502 10295 ft 277 kts 186°
2026-05-03 23:32 53.21109 -2.18826 10782 ft 300 kts 185°
2026-05-03 23:33 53.18968 -2.19169 11378 ft 316 kts 185°
2026-05-03 23:33 53.16755 -2.19518 12232 ft 322 kts 185°
2026-05-03 23:33 53.14497 -2.19526 13175 ft 328 kts 173°
2026-05-03 23:33 53.12300 -2.18547 14072 ft 334 kts 161°
2026-05-03 23:34 53.10120 -2.17097 14915 ft 339 kts 158°
2026-05-03 23:34 53.07937 -2.15557 15767 ft 343 kts 158°
2026-05-03 23:34 53.05719 -2.13993 16604 ft 348 kts 158°
2026-05-03 23:34 53.03473 -2.12421 17447 ft 352 kts 159°
2026-05-03 23:35 53.01199 -2.10841 18260 ft 356 kts 159°
2026-05-03 23:35 52.98908 -2.09256 18755 ft 358 kts 159°
2026-05-03 23:35 52.96607 -2.07668 18951 ft 356 kts 159°
2026-05-03 23:35 52.94340 -2.06106 18975 ft 351 kts 159°
2026-05-03 23:36 52.92092 -2.04561 18976 ft 349 kts 159°
2026-05-03 23:36 52.89876 -2.03040 18973 ft 349 kts 159°
2026-05-03 23:36 52.87636 -2.01506 18970 ft 349 kts 159°
2026-05-03 23:36 52.85389 -1.99968 18971 ft 349 kts 159°
2026-05-03 23:37 52.83145 -1.98434 18972 ft 348 kts 159°
2026-05-03 23:37 52.80900 -1.96901 18976 ft 348 kts 159°
2026-05-03 23:37 52.78661 -1.95374 18973 ft 348 kts 159°
2026-05-03 23:37 52.76413 -1.93843 18966 ft 348 kts 159°
2026-05-03 23:38 52.74173 -1.92319 18969 ft 348 kts 159°
2026-05-03 23:38 52.71959 -1.90813 18968 ft 348 kts 159°
2026-05-03 23:38 52.69692 -1.89274 18969 ft 348 kts 160°
2026-05-03 23:38 52.67483 -1.87776 18964 ft 348 kts 160°
2026-05-03 23:39 52.65243 -1.86258 18962 ft 348 kts 160°
2026-05-03 23:39 52.63009 -1.84746 18964 ft 347 kts 160°
2026-05-03 23:39 52.60771 -1.83234 18967 ft 347 kts 160°
2026-05-03 23:39 52.58532 -1.81721 18968 ft 347 kts 160°
2026-05-03 23:40 52.56296 -1.80213 18966 ft 347 kts 160°
2026-05-03 23:40 52.54057 -1.78705 18965 ft 347 kts 160°
2026-05-03 23:40 52.51820 -1.77199 18966 ft 348 kts 160°
2026-05-03 23:40 52.49584 -1.75696 18965 ft 348 kts 160°
2026-05-03 23:41 52.47345 -1.74192 18965 ft 348 kts 160°
2026-05-03 23:41 52.45104 -1.72689 18967 ft 348 kts 160°
2026-05-03 23:41 52.42865 -1.71189 18964 ft 348 kts 160°
2026-05-03 23:41 52.40630 -1.69693 18968 ft 348 kts 160°
2026-05-03 23:42 52.38389 -1.68194 18967 ft 348 kts 160°
2026-05-03 23:42 52.36177 -1.66577 18965 ft 349 kts 153°
2026-05-03 23:42 52.34178 -1.64298 18963 ft 352 kts 143°
2026-05-03 23:42 52.32306 -1.61716 18963 ft 352 kts 142°
2026-05-03 23:43 52.30457 -1.59083 18965 ft 353 kts 141°
2026-05-03 23:43 52.28634 -1.56486 18966 ft 352 kts 142°
2026-05-03 23:43 52.26762 -1.53832 18965 ft 351 kts 142°
2026-05-03 23:43 52.24934 -1.51249 18963 ft 351 kts 142°
2026-05-03 23:44 52.23085 -1.48645 18967 ft 351 kts 142°
2026-05-03 23:44 52.21238 -1.46050 18966 ft 351 kts 142°
2026-05-03 23:44 52.19383 -1.43452 18964 ft 351 kts 142°
2026-05-03 23:44 52.17524 -1.40853 18964 ft 351 kts 142°
2026-05-03 23:45 52.15669 -1.38261 18967 ft 351 kts 142°
2026-05-03 23:45 52.13820 -1.35681 18754 ft 347 kts 142°
2026-05-03 23:45 52.12005 -1.33150 18460 ft 339 kts 142°
2026-05-03 23:45 52.10230 -1.30679 17866 ft 341 kts 142°
2026-05-03 23:46 52.08423 -1.28169 17263 ft 341 kts 142°
2026-05-03 23:46 52.06616 -1.25660 16760 ft 339 kts 142°
2026-05-03 23:46 52.04824 -1.23175 16234 ft 338 kts 142°
2026-05-03 23:46 52.03045 -1.20710 15713 ft 336 kts 142°
2026-05-03 23:47 52.01275 -1.18259 15221 ft 333 kts 142°
2026-05-03 23:47 51.99539 -1.15857 14988 ft 321 kts 142°
2026-05-03 23:47 51.97882 -1.13563 14955 ft 304 kts 142°
2026-05-03 23:47 51.96318 -1.11400 14944 ft 287 kts 142°
2026-05-03 23:48 51.94838 -1.09356 14948 ft 273 kts 143°
2026-05-03 23:48 51.93407 -1.07384 14954 ft 268 kts 143°
2026-05-03 23:48 51.91978 -1.05422 14943 ft 269 kts 143°
2026-05-03 23:48 51.90550 -1.03462 14941 ft 270 kts 143°
2026-05-03 23:49 51.89118 -1.01495 14938 ft 269 kts 143°
2026-05-03 23:49 51.87719 -0.99574 14727 ft 267 kts 143°
2026-05-03 23:49 51.86296 -0.97616 14300 ft 270 kts 141°
2026-05-03 23:49 51.85056 -0.95301 13894 ft 276 kts 125°
2026-05-03 23:50 51.84127 -0.92577 13519 ft 276 kts 120°
2026-05-03 23:50 51.83564 -0.90734 13264 ft 276 kts 119°
2026-05-03 23:50 51.82447 -0.87012 12776 ft 274 kts 119°
2026-05-03 23:50 51.81616 -0.84258 12417 ft 272 kts 119°
2026-05-03 23:51 51.80781 -0.81509 12052 ft 271 kts 119°
2026-05-03 23:51 51.79952 -0.78792 11702 ft 269 kts 119°
2026-05-03 23:51 51.79123 -0.76084 11349 ft 268 kts 119°
2026-05-03 23:51 51.78299 -0.73398 11021 ft 266 kts 119°
2026-05-03 23:52 51.77478 -0.70727 10679 ft 265 kts 119°
2026-05-03 23:52 51.76660 -0.68073 10343 ft 263 kts 119°
2026-05-03 23:52 51.75856 -0.65462 10013 ft 262 kts 119°
2026-05-03 23:52 51.75047 -0.62842 9663 ft 261 kts 119°
2026-05-03 23:53 51.74240 -0.60227 9288 ft 259 kts 119°
2026-05-03 23:53 51.73437 -0.57632 8940 ft 257 kts 119°
2026-05-03 23:53 51.72601 -0.55086 8572 ft 255 kts 124°
2026-05-03 23:53 51.71615 -0.52705 8213 ft 253 kts 127°
2026-05-03 23:54 51.70603 -0.50425 7874 ft 251 kts 128°
2026-05-03 23:54 51.69581 -0.48149 7532 ft 250 kts 128°
2026-05-03 23:54 51.68562 -0.45882 7185 ft 249 kts 128°
2026-05-03 23:54 51.67558 -0.43644 6990 ft 243 kts 128°
2026-05-03 23:55 51.66581 -0.41465 6982 ft 239 kts 128°
2026-05-03 23:55 51.65603 -0.39285 6976 ft 241 kts 128°
2026-05-03 23:55 51.64627 -0.37110 6963 ft 233 kts 128°
2026-05-03 23:55 51.63722 -0.35087 6975 ft 213 kts 128°
2026-05-03 23:56 51.62881 -0.33211 6856 ft 201 kts 128°
2026-05-03 23:56 51.62059 -0.31401 6605 ft 200 kts 129°
2026-05-03 23:56 51.61224 -0.29612 6291 ft 199 kts 129°
2026-05-03 23:56 51.60388 -0.27837 5929 ft 199 kts 130°
2026-05-03 23:57 51.59553 -0.26065 5595 ft 198 kts 130°
2026-05-03 23:57 51.58714 -0.24290 5277 ft 206 kts 129°
2026-05-03 23:57 51.57821 -0.22389 4941 ft 222 kts 128°
2026-05-03 23:57 51.56895 -0.20376 4606 ft 225 kts 128°
2026-05-03 23:58 51.55970 -0.18355 4267 ft 224 kts 128°
2026-05-03 23:58 51.55051 -0.16347 3936 ft 223 kts 128°
2026-05-03 23:58 51.54412 -0.15010 3701 ft 221 kts 133°
2026-05-03 23:58 51.53152 -0.13749 3381 ft 217 kts 166°
2026-05-03 23:59 51.51659 -0.13462 3081 ft 216 kts 179°
2026-05-03 23:59 51.50178 -0.13435 2980 ft 208 kts 180°
2026-05-03 23:59 51.48765 -0.13676 2968 ft 203 kts 201°
2026-05-03 23:59 51.47674 -0.15040 2976 ft 202 kts 232°
2026-05-04 00:00 51.46935 -0.16958 2970 ft 202 kts 244°
2026-05-04 00:00 51.46573 -0.19139 2972 ft 204 kts 263°
2026-05-04 00:00 51.46670 -0.21395 2843 ft 204 kts 286°
2026-05-04 00:00 51.47151 -0.23522 2576 ft 200 kts 290°
2026-05-04 00:01 51.47589 -0.25622 2288 ft 196 kts 283°
2026-05-04 00:01 51.47770 -0.27750 2023 ft 191 kts 272°
2026-05-04 00:01 51.47784 -0.29852 1762 ft 185 kts 270°
2026-05-04 00:01 51.47800 -0.31818 1538 ft 173 kts 270°
2026-05-04 00:02 51.47791 -0.33658 1318 ft 154 kts 269°
2026-05-04 00:02 51.47785 -0.35279 1087 ft 141 kts 269°
2026-05-04 00:02 51.47796 -0.36768 889 ft 127 kts 269°
2026-05-04 00:02 51.47780 -0.38154 742 ft 124 kts 268°
2026-05-04 00:03 51.47782 -0.39545 628 ft 125 kts 270°
2026-05-04 00:03 51.47773 -0.40930 456 ft 124 kts 269°
2026-05-04 00:03 51.47768 -0.42303 275 ft 122 kts 271°
2026-05-04 00:03 51.47766 -0.43663 122 ft 122 kts 270°
2026-05-04 00:04 51.47762 -0.44920 92 ft 90 kts 270°
2026-05-04 00:04 51.47760 -0.45692 88 ft 42 kts 269°
2026-05-04 00:04 51.47665 -0.45948 92 ft 24 kts 221°
2026-05-04 00:04 51.47593 -0.46162 91 ft 22 kts 270°
2026-05-04 00:05 51.47593 -0.46407 90 ft 22 kts 270°
2026-05-04 00:05 51.47593 -0.46660 92 ft 23 kts 268°
2026-05-04 00:05 51.47583 -0.46922 93 ft 24 kts 267°
2026-05-04 00:05 51.47581 -0.47184 92 ft 23 kts 270°
2026-05-04 00:06 51.47580 -0.47447 93 ft 24 kts 270°
2026-05-04 00:06 51.47580 -0.47722 93 ft 25 kts 270°
2026-05-04 00:06 51.47578 -0.48005 91 ft 25 kts 270°
2026-05-04 00:06 51.47577 -0.48273 91 ft 22 kts 269°
2026-05-04 00:07 51.47560 -0.48461 92 ft 11 kts 218°
2026-05-04 00:07 51.47492 -0.48518 92 ft 11 kts 243°
2026-05-04 00:07 51.47487 -0.48644 92 ft 12 kts 270°
2026-05-04 00:07 51.47480 -0.48754 94 ft 7 kts 221°
2026-05-04 00:08 51.47448 -0.48761 92 ft 6 kts 179°
2026-05-04 00:08 51.47411 -0.48760 92 ft 3 kts 179°
2026-05-04 00:08 51.47397 -0.48760 92 ft 1 kts 180°
2026-05-04 00:08 51.47396 -0.48760 92 ft 0 kts 180°